Sigfox identifier Datetime Temperature Humidity SNR
0038B111 2018-10-09 08:33:57 20.8 39 14.1
0038B111 2018-10-09 07:27:16 20.8 39 14.1
0038B111 2018-10-09 06:20:38 20.8 39 14
0038B111 2018-10-09 05:13:51 20.8 39 14
0038B111 2018-10-09 01:53:56 20.8 38 14
0038B111 2018-10-09 00:47:15 20.7 38 14.8
0038B111 2018-10-08 23:40:32 20.7 38 15
0038B111 2018-10-08 22:33:55 20.7 38 15.7
0038B111 2018-10-08 21:27:11 20.6 38 15.6
0038B111 2018-10-08 20:20:31 20.6 38 15.6
0038B111 2018-10-08 18:07:15 20.6 37 15.6
0038B111 2018-10-08 17:00:30 20.6 37 15.5
0038B111 2018-10-08 14:47:05 20.5 37 15.6
0038B111 2018-10-08 12:33:38 20.4 36 15.5
0038B111 2018-10-08 11:26:59 20.2 35 15.8
0038B111 2018-10-08 10:20:18 20.2 35 15.5
0038B111 2018-10-08 09:13:39 20.2 36 15.5
0038B111 2018-10-08 08:07:00 20.2 37 15.6
0038B111 2018-10-08 07:00:20 20.4 37 15.7
0038B111 2018-10-08 05:53:40 20.3 37 16.1
0038B111 2018-10-08 04:46:59 20.4 38 15.9
0038B111 2018-10-08 03:40:19 20.4 38 16.2
0038B111 2018-10-08 02:33:37 20.4 38 17
0038B111 2018-10-08 01:26:56 20.4 38 17.6
0038B111 2018-10-08 00:20:15 20.4 38 17.9
0038B111 2018-10-07 23:13:32 20.4 39 17.9
0038B111 2018-10-07 22:06:50 20.5 39 17.9
0038B111 2018-10-07 21:00:06 20.5 39 18.2
0038B111 2018-10-07 19:53:22 20.5 39 18.5
0038B111 2018-10-07 18:46:41 20.5 39 18.6
0038B111 2018-10-07 17:39:57 20.4 39 18.3
0038B111 2018-10-07 16:33:17 20.5 39 18.7
0038B111 2018-10-07 15:26:39 20.6 39 18.4
0038B111 2018-10-07 14:19:59 20.5 39 18.8
0038B111 2018-10-07 13:13:18 20.5 39 19.2
0038B111 2018-10-07 12:06:35 20.6 39 19.5
0038B111 2018-10-07 10:59:53 20.6 39 19.7
0038B111 2018-10-07 09:53:15 20.6 39 20.2
0038B111 2018-10-07 08:46:34 20.6 40 20.5
0038B111 2018-10-07 07:39:56 20.6 40 20.7
0038B111 2018-10-07 06:33:19 20.6 40 21
0038B111 2018-10-07 05:26:37 20.6 40 21.2
0038B111 2018-10-07 03:13:11 20.6 40 21.3
0038B111 2018-10-07 02:06:33 20.7 40 21.5
0038B111 2018-10-07 00:59:53 20.7 40 21.5
0038B111 2018-10-06 23:53:13 20.8 40 21.5
0038B111 2018-10-06 22:46:32 20.8 40 21.5
0038B111 2018-10-06 21:39:52 20.8 40 21.2
0038B111 2018-10-06 20:33:13 20.8 40 21.1
0038B111 2018-10-06 19:26:34 20.8 40 21.5
0038B111 2018-10-06 18:19:54 20.8 40 21.6
0038B111 2018-10-06 17:13:15 20.8 40 21.7
0038B111 2018-10-06 16:06:36 20.8 40 21.6
0038B111 2018-10-06 14:59:58 20.8 40 21.4
0038B111 2018-10-06 13:53:16 20.8 40 21.4
0038B111 2018-10-06 12:46:35 20.8 40 21.3
0038B111 2018-10-06 11:39:53 20.8 41 21
0038B111 2018-10-06 10:33:11 20.8 41 21
0038B111 2018-10-06 09:26:28 20.9 41 20.8
0038B111 2018-10-06 08:19:46 21 41 20.6
0038B111 2018-10-06 07:13:03 21 41 20.4
0038B111 2018-10-06 06:06:17 21 41 20.2
0038B111 2018-10-06 04:59:34 21 41 19.9
0038B111 2018-10-06 03:52:51 21.1 41 19.5
0038B111 2018-10-06 02:46:04 21.2 42 19.2
0038B111 2018-10-06 01:39:15 21.3 42 18.8
0038B111 2018-10-06 00:32:29 21.3 42 18.5
0038B111 2018-10-05 23:25:46 21.3 42 18.4
0038B111 2018-10-05 22:19:00 21.4 42 17.8
0038B111 2018-10-05 21:12:14 21.5 42 17.6
0038B111 2018-10-05 20:05:26 21.5 43 17.7
0038B111 2018-10-05 18:58:42 21.5 43 18.1
0038B111 2018-10-05 17:51:58 21.4 43 18.6
0038B111 2018-10-05 16:45:12 21.3 43 18.2
0038B111 2018-10-05 15:38:29 21.3 43 17.3
0038B111 2018-10-05 14:31:48 21 41 17.3
0038B111 2018-10-05 13:25:04 21 40 17.1
0038B111 2018-10-05 12:18:18 20.8 38 17.3
0038B111 2018-10-05 11:11:38 20.6 35 17.4
0038B111 2018-10-05 08:58:16 20.4 33 17.6
0038B111 2018-10-05 07:51:36 20.4 32 17.8
0038B111 2018-10-05 06:44:51 20.4 32 18.1
0038B111 2018-10-05 05:38:07 20.5 32 18.2
0038B111 2018-10-05 04:31:21 20.6 32 18.3
0038B111 2018-10-05 03:24:37 20.6 33 18.3
0038B111 2018-10-05 02:17:52 20.6 33 18.5
0038B111 2018-10-05 01:11:07 20.6 33 18.6
0038B111 2018-10-05 00:04:32 20.6 33 18.7
0038B111 2018-10-04 22:57:48 20.8 33 18.8
0038B111 2018-10-04 21:51:09 20.8 33 18.8
0038B111 2018-10-04 20:44:28 20.8 32 19.9
0038B111 2018-10-04 19:37:41 20.8 32 19.9
0038B111 2018-10-04 18:31:05 21 33 19.9
0038B111 2018-10-04 17:24:22 21 33 19.9
0038B111 2018-10-04 16:17:41 20.8 35 19.8
0038B111 2018-10-04 15:10:58 20.6 35 19.8
0038B111 2018-10-04 14:04:16 20.4 35 19.4
0038B111 2018-10-04 12:57:36 20.4 36 19.2
0038B111 2018-10-04 11:50:53 20.2 38 19.2
0038B111 2018-10-04 10:44:13 20.2 38 19.2
0038B111 2018-10-04 09:37:34 20.2 39 19.1
0038B111 2018-10-04 08:30:51 20.2 39 19
0038B111 2018-10-04 07:24:06 20.2 40 18.9
0038B111 2018-10-04 06:17:23 20.2 40 18.8
0038B111 2018-10-04 05:10:41 20.3 40 18.7
0038B111 2018-10-04 04:03:59 20.4 41 18.7
0038B111 2018-10-04 02:57:16 20.4 41 18.4
0038B111 2018-10-04 01:50:36 20.4 41 18.3
0038B111 2018-10-04 00:43:51 20.5 41 18.1
0038B111 2018-10-03 23:37:07 20.6 42 18.3
0038B111 2018-10-03 22:30:25 20.6 42 18
0038B111 2018-10-03 21:23:42 20.6 42 17.9
0038B111 2018-10-03 20:16:56 20.6 42 17.8
0038B111 2018-10-03 19:10:10 20.6 42 17.6
0038B111 2018-10-03 18:03:25 20.6 43 17.8
0038B111 2018-10-03 16:56:41 20.6 43 15.6
0038B111 2018-10-03 15:50:01 20.6 43 15.7
0038B111 2018-10-03 14:43:14 20.5 42 15.8
0038B111 2018-10-03 13:36:35 20.4 42 16
0038B111 2018-10-03 12:29:52 20.4 42 16.1
0038B111 2018-10-03 11:23:09 20.4 42 16.1
0038B111 2018-10-03 10:16:30 20.3 42 16.3
0038B111 2018-10-03 09:09:46 20.2 41 16
0038B111 2018-10-03 08:03:02 20.2 41 16.2
0038B111 2018-10-03 06:56:20 20.3 42 15.9
0038B111 2018-10-03 05:49:41 20.3 42 15.5
0038B111 2018-10-03 04:43:00 20.4 42 15.7
0038B111 2018-10-03 03:36:17 20.4 42 15.9
0038B111 2018-10-03 02:29:32 20.4 42 16
0038B111 2018-10-03 01:22:51 20.4 42 16.2
0038B111 2018-10-03 00:16:04 20.5 42 16.3
0038B111 2018-10-02 23:09:15 20.6 42 16.7
0038B111 2018-10-02 22:02:25 20.6 42 17.1
0038B111 2018-10-02 20:55:36 20.6 42 17.7
0038B111 2018-10-02 19:48:49 20.7 42 16.9
0038B111 2018-10-02 18:42:01 20.8 42 16.9
0038B111 2018-10-02 17:35:15 20.8 43 18
0038B111 2018-10-02 16:28:28 20.9 43 17.1
0038B111 2018-10-02 15:21:46 21 43 19.4
0038B111 2018-10-02 14:15:01 20.2 48 0